| time (UTC) | temp F | wind direction | speed knots | gust knots | rain 1hr in | rain 24hr in | rain mn in | humidity % | barometer mb |
| 20260831083112 | 80 | 0 | 0.9 | 3.5 | 0.00 | 0.00 | 0.00 | 47 | 1020.4 |
| 20260831081603 | 79 | 123 | 0.0 | 2.6 | 0.00 | 0.00 | 0.00 | 50 | 1020.3 |
| 20260831080129 | 78 | 0 | 0.9 | 2.6 | 0.00 | 0.00 | 0.00 | 52 | 1020.2 |
| 20260831074555 | 77 | 5 | 0.0 | 2.6 | 0.00 | 0.00 | 0.00 | 53 | 1020.2 |
| 20260831073102 | 76 | 0 | 0.0 | 1.7 | 0.00 | 0.00 | 0.00 | 55 | 1020.0 |
| 20260831071604 | 75 | 0 | 0.0 | 1.7 | 0.00 | 0.00 | 0.00 | 58 | 1020.0 |
| 20260831070104 | 73 | 0 | 0.0 | 1.7 | 0.00 | 0.00 | 0.00 | 61 | 1020.0 |
| 20260831064554 | 71 | 0 | 0.0 | 0.0 | 0.00 | 0.00 | 0.00 | 65 | 1019.9 |
| 20260831063108 | 70 | 0 | 0.0 | 1.7 | 0.00 | 0.00 | 0.00 | 66 | 1019.9 |
| 20260831061603 | 68 | 0 | 0.0 | 0.9 | 0.00 | 0.00 | 0.00 | 67 | 1020.0 |
| 20260831060105 | 67 | 323 | 0.0 | 1.7 | 0.00 | 0.00 | 0.00 | 70 | 1019.9 |
| 20260831054604 | 67 | 0 | 0.0 | 0.0 | 0.00 | 0.00 | 0.00 | 69 | 1019.9 |
| 20260831053132 | 66 | 0 | 0.0 | 0.9 | 0.00 | 0.00 | 0.00 | 69 | 1019.9 |
| 20260831051600 | 66 | 0 | 0.0 | 1.7 | 0.00 | 0.00 | 0.00 | 68 | 1019.8 |
| 20260831050058 | 66 | 0 | 0.0 | 0.9 | 0.00 | 0.00 | 0.00 | 67 | 1019.6 |
| 20260831044643 | 66 | 0 | 0.0 | 1.7 | 0.00 | 0.00 | 0.00 | 67 | 1019.7 |
| 20260831043105 | 65 | 0 | 0.0 | 0.9 | 0.00 | 0.00 | 0.00 | 68 | 1019.6 |
| 20260831041603 | 66 | 0 | 0.0 | 1.7 | 0.00 | 0.00 | 0.00 | 68 | 1019.6 |
| 20260831040056 | 66 | 0 | 0.0 | 1.7 | 0.00 | 0.00 | 0.00 | 68 | 1019.7 |
| 20260831034609 | 66 | 0 | 0.0 | 0.9 | 0.00 | 0.00 | 0.00 | 68 | 1019.8 |
| 20260831033111 | 65 | 0 | 0.0 | 0.9 | 0.00 | 0.00 | 0.00 | 68 | 1019.7 |
| 20260831031600 | 65 | 0 | 0.0 | 0.0 | 0.00 | 0.00 | 0.00 | 69 | 1019.9 |
| 20260831030056 | 66 | 0 | 0.0 | 0.0 | 0.00 | 0.00 | 0.00 | 68 | 1019.9 |
| 20260831024553 | 66 | 0 | 0.0 | 0.0 | 0.00 | 0.00 | 0.00 | 69 | 1019.9 |
| 20260831023107 | 66 | 360 | 0.0 | 0.9 | 0.00 | 0.00 | 0.00 | 68 | 1020.0 |
| 20260831021601 | 67 | 0 | 0.0 | 0.9 | 0.00 | 0.00 | 0.00 | 68 | 1020.1 |
| 20260831014553 | 67 | 360 | 1.7 | 2.6 | 0.00 | 0.00 | 0.00 | 69 | 1020.2 |
| 20260831013102 | 67 | 0 | 0.0 | 1.7 | 0.00 | 0.00 | 0.00 | 68 | 1020.2 |
| 20260831011559 | 67 | 360 | 1.7 | 3.5 | 0.00 | 0.00 | 0.00 | 68 | 1020.0 |
| 20260831010107 | 67 | 360 | 1.7 | 3.5 | 0.00 | 0.00 | 0.00 | 69 | 1020.1 |
| 20260831004612 | 67 | 360 | 1.7 | 2.6 | 0.00 | 0.00 | 0.00 | 69 | 1020.2 |
| 20260831003109 | 67 | 360 | 0.9 | 2.6 | 0.00 | 0.00 | 0.00 | 69 | 1020.3 |
| 20260831001600 | 67 | 0 | 0.0 | 0.0 | 0.00 | 0.00 | 0.00 | 69 | 1020.2 |
| 20260831000110 | 67 | 0 | 0.0 | 0.0 | 0.00 | 0.00 | 0.00 | 69 | 1020.4 |
| 20260830234624 | 67 | 0 | 0.0 | 0.0 | 0.00 | 0.00 | 0.00 | 69 | 1020.3 |
| 20260830233104 | 67 | 0 | 0.0 | 4.3 | 0.00 | 0.00 | 0.00 | 70 | 1020.3 |
| 20260830231607 | 67 | 360 | 0.9 | 2.6 | 0.00 | 0.00 | 0.00 | 70 | 1020.3 |
| 20260830230059 | 68 | 0 | 0.0 | 3.5 | 0.00 | 0.00 | 0.00 | 69 | 1020.4 |
| 20260830224559 | 68 | 360 | 1.7 | 3.5 | 0.00 | 0.00 | 0.00 | 69 | 1020.2 |
| 20260830223057 | 69 | 360 | 0.0 | 2.6 | 0.00 | 0.00 | 0.00 | 68 | 1020.3 |
| 20260830221553 | 69 | 0 | 0.0 | 2.6 | 0.00 | 0.00 | 0.00 | 67 | 1020.3 |
| 20260830220106 | 69 | 360 | 0.9 | 3.5 | 0.00 | 0.00 | 0.00 | 66 | 1020.2 |
| 20260830214602 | 70 | 360 | 1.7 | 4.3 | 0.00 | 0.00 | 0.00 | 66 | 1020.2 |
| 20260830213107 | 70 | 360 | 1.7 | 4.3 | 0.00 | 0.00 | 0.00 | 65 | 1020.2 |
| 20260830211606 | 70 | 360 | 0.9 | 3.5 | 0.00 | 0.00 | 0.00 | 65 | 1020.2 |
| 20260830210103 | 70 | 350 | 1.7 | 3.5 | 0.00 | 0.00 | 0.00 | 64 | 1020.1 |
| 20260830204558 | 71 | 360 | 0.0 | 3.5 | 0.00 | 0.00 | 0.00 | 62 | 1020.1 |
| 20260830203101 | 71 | 0 | 0.0 | 1.7 | 0.00 | 0.00 | 0.00 | 61 | 1020.1 |
| 20260830201606 | 71 | 0 | 0.9 | 4.3 | 0.00 | 0.00 | 0.00 | 61 | 1020.1 |
| 20260830200106 | 72 | 21 | 0.9 | 2.6 | 0.00 | 0.00 | 0.00 | 60 | 1020.2 |
| 20260830194602 | 72 | 297 | 1.7 | 3.5 | 0.00 | 0.00 | 0.00 | 59 | 1020.2 |
| 20260830193056 | 72 | 348 | 0.0 | 2.6 | 0.00 | 0.00 | 0.00 | 58 | 1020.2 |
| 20260830191555 | 73 | 207 | 0.0 | 4.3 | 0.00 | 0.00 | 0.00 | 58 | 1020.2 |
| 20260830184601 | 74 | 325 | 2.6 | 5.2 | 0.00 | 0.00 | 0.00 | 56 | 1020.1 |
| 20260830183103 | 74 | 318 | 2.6 | 5.2 | 0.00 | 0.00 | 0.00 | 55 | 1019.9 |
| 20260830181600 | 75 | 318 | 2.6 | 4.3 | 0.00 | 0.00 | 0.00 | 54 | 1019.7 |
| 20260830180108 | 75 | 327 | 2.6 | 4.3 | 0.00 | 0.00 | 0.00 | 53 | 1019.5 |
| 20260830174617 | 76 | 325 | 1.7 | 3.5 | 0.00 | 0.00 | 0.00 | 52 | 1019.4 |
| 20260830173108 | 78 | 315 | 1.7 | 5.2 | 0.00 | 0.00 | 0.00 | 49 | 1019.2 |
| 20260830171609 | 79 | 324 | 2.6 | 5.2 | 0.00 | 0.00 | 0.00 | 47 | 1019.1 |
| 20260830170110 | 79 | 355 | 1.7 | 5.2 | 0.00 | 0.00 | 0.00 | 46 | 1019.1 |
| 20260830164604 | 80 | 297 | 1.7 | 4.3 | 0.00 | 0.00 | 0.00 | 45 | 1019.2 |
| 20260830163107 | 81 | 28 | 1.7 | 4.3 | 0.00 | 0.00 | 0.00 | 40 | 1019.0 |
| 20260830161622 | 85 | 319 | 0.9 | 3.5 | 0.00 | 0.00 | 0.00 | 33 | 1018.9 |
| 20260830160104 | 87 | 0 | 0.0 | 4.3 | 0.00 | 0.00 | 0.00 | 29 | 1018.9 |
| 20260830154601 | 89 | 152 | 1.7 | 4.3 | 0.00 | 0.00 | 0.00 | 27 | 1018.9 |
| 20260830153055 | 90 | 0 | 0.0 | 6.1 | 0.00 | 0.00 | 0.00 | 26 | 1018.9 |
| 20260830151559 | 90 | 111 | 0.0 | 1.7 | 0.00 | 0.00 | 0.00 | 26 | 1018.8 |
| 20260830150121 | 89 | 0 | 0.0 | 6.1 | 0.00 | 0.00 | 0.00 | 26 | 1019.0 |
| 20260830144555 | 88 | 190 | 0.0 | 6.1 | 0.00 | 0.00 | 0.00 | 27 | 1019.0 |
| 20260830143105 | 89 | 184 | 2.6 | 6.1 | 0.00 | 0.00 | 0.00 | 26 | 1019.1 |
| 20260830141559 | 89 | 148 | 2.6 | 6.1 | 0.00 | 0.00 | 0.00 | 26 | 1019.1 |
| 20260830140109 | 88 | 0 | 0.0 | 4.3 | 0.00 | 0.00 | 0.00 | 27 | 1019.2 |
| 20260830134604 | 87 | 109 | 1.7 | 8.7 | 0.00 | 0.00 | 0.00 | 28 | 1019.4 |
| 20260830133103 | 88 | 201 | 3.5 | 7.8 | 0.00 | 0.00 | 0.00 | 27 | 1019.6 |
| 20260830131601 | 88 | 0 | 1.7 | 7.0 | 0.00 | 0.00 | 0.00 | 28 | 1019.7 |
| 20260830130108 | 87 | 0 | 0.9 | 4.3 | 0.00 | 0.00 | 0.00 | 28 | 1019.8 |
| 20260830124605 | 86 | 141 | 0.9 | 7.0 | 0.00 | 0.00 | 0.00 | 30 | 1019.9 |
| 20260830123100 | 86 | 126 | 0.9 | 6.1 | 0.00 | 0.00 | 0.00 | 30 | 1019.9 |
| 20260830121559 | 86 | 143 | 1.7 | 6.1 | 0.00 | 0.00 | 0.00 | 31 | 1020.0 |
| 20260830120104 | 84 | 119 | 0.9 | 5.2 | 0.00 | 0.00 | 0.00 | 32 | 1019.9 |
| 20260830114615 | 84 | 184 | 2.6 | 10.4 | 0.00 | 0.00 | 0.00 | 33 | 1020.0 |
| 20260830113101 | 83 | 0 | 0.9 | 3.5 | 0.00 | 0.00 | 0.00 | 35 | 1020.0 |
| 20260830111602 | 83 | 122 | 2.6 | 7.8 | 0.00 | 0.00 | 0.00 | 35 | 1020.0 |
| 20260830110101 | 83 | 166 | 2.6 | 7.8 | 0.00 | 0.00 | 0.00 | 35 | 1020.0 |
| 20260830104559 | 83 | 144 | 2.6 | 7.0 | 0.00 | 0.00 | 0.00 | 35 | 1020.0 |
| 20260830103057 | 83 | 126 | 2.6 | 4.3 | 0.00 | 0.00 | 0.00 | 35 | 1020.1 |
| 20260830101556 | 82 | 177 | 3.5 | 7.8 | 0.00 | 0.00 | 0.00 | 36 | 1020.3 |
| 20260830094600 | 82 | 107 | 0.9 | 4.3 | 0.00 | 0.00 | 0.00 | 38 | 1020.6 |
| 20260830093101 | 80 | 78 | 1.7 | 6.1 | 0.00 | 0.00 | 0.00 | 38 | 1020.7 |
| 20260830091601 | 80 | 144 | 0.9 | 5.2 | 0.00 | 0.00 | 0.00 | 38 | 1020.8 |
| 20260830090122 | 80 | 136 | 0.9 | 5.2 | 0.00 | 0.00 | 0.00 | 38 | 1020.7 |
| 20260830084605 | 79 | 121 | 0.9 | 3.5 | 0.00 | 0.00 | 0.00 | 37 | 1020.8 |